Location: Nitra
(0.0000°N, 18.0833°E)
Time: 16:53:53
(UTC+02:00)

Vanguard 1 - Visible Passes

Search period start: 30 March 2023 00:00
Search period end: 09 April 2023 00:00
Orbit: 648 x 3832 km, 34.3° (Epoch: 30 March)

Date Brightness Start Highest point End Pass type
(mag) Time Alt. Az. Time Alt. Az. Time Alt. Az.
30 Mar 12.8 19:11:53 10° NNW 19:25:53 24° NNE 19:35:23 10° ENE visible
30 Mar 11.8 21:38:08 10° NW 21:48:55 46° NNW 21:48:55 46° NNW visible
31 Mar 12.5 19:32:49 10° NNW 19:48:03 30° NNE 19:55:55 15° ENE visible
31 Mar 12.0 21:59:10 10° NW 22:08:38 44° NW 22:08:38 44° NW visible
01 Apr 12.1 19:53:40 10° NW 20:09:53 38° NNE 20:15:39 25° ENE visible
01 Apr 12.3 22:20:29 10° WNW 22:28:22 36° WNW 22:28:22 36° WNW visible
02 Apr 11.7 20:14:33 10° NW 20:31:27 49° NNE 20:35:25 38° ENE visible
02 Apr 12.7 22:42:11 10° WNW 22:48:08 27° WNW 22:48:08 27° WNW visible
03 Apr 11.3 20:35:32 10° NW 20:52:44 65° NNE 20:55:12 54° E visible
03 Apr 13.1 23:04:23 10° WNW 23:07:54 18° W 23:07:54 18° W visible
04 Apr 11.1 20:56:42 10° NW 21:13:44 85° NE 21:15:00 75° ESE visible
04 Apr 13.4 23:27:18 10° W 23:27:42 11° W 23:27:42 11° W visible
05 Apr 12.6 18:50:27 10° NW 19:09:55 44° NNE 19:21:44 10° E visible
05 Apr 11.3 21:18:11 10° WNW 21:34:28 73° SW 21:34:48 72° SSW visible
06 Apr 12.4 19:11:25 10° NW 19:31:32 55° NNE 19:41:55 15° ESE visible
06 Apr 11.7 21:40:03 10° WNW 21:54:37 52° SW 21:54:37 52° SW visible
07 Apr 12.1 19:32:28 10° NW 19:52:53 70° NE 20:01:44 22° ESE visible
07 Apr 12.3 22:02:24 10° WNW 22:14:27 36° SW 22:14:27 36° SW visible
08 Apr 11.9 19:53:44 10° NW 20:13:57 88° NE 20:21:34 28° SE visible
08 Apr 12.7 22:25:26 10° W 22:34:16 25° WSW 22:34:16 25° WSW visible
